Zurück zum Katalog

COCONUT

AktivWissenschaftVLEO
NORAD 69799·PAYLOAD·🇺🇸 United States
Dieser Satellitenname wurde noch nicht durch offizielle Quellen bestätigt.

Gestartet Nov 20, 1998 von Baikonur Cosmodrome

Loading…

Nächste Überflüge (nächste 24 Stunden)

TLE

AktuellSource: Space-Track

Epoche: Sep 14, 2026, 07:23 UTC

1 69799U 98067YP  26257.30772218  .00046618  00000-0  66873-3 0  9990
2 69799  51.6297 217.1831 0010504 142.5369 217.6356 15.55604574 11481

Verfolge COCONUT in Echtzeit mit AllMySat

Download on the App Store